TimeCDT,TemperatureF,Dew PointF,Humidity,Sea Level PressureIn,VisibilityMPH,Wind Direction,Wind SpeedMPH,Gust SpeedMPH,PrecipitationIn,Events,Conditions,WindDirDegrees,DateUTC
12:58 AM,70.9,67.8,90,30.14,10.0,East,5.8,-,N/A,,Clear,100,2013-06-21 05:58:00
1:58 AM,69.4,68.4,96,30.14,10.0,ESE,5.8,-,N/A,,Clear,110,2013-06-21 06:58:00
2:58 AM,68.4,68.4,100,30.13,10.0,East,4.6,-,N/A,,Clear,90,2013-06-21 07:58:00
3:58 AM,67.8,67.8,100,30.14,10.0,East,4.6,-,N/A,,Clear,100,2013-06-21 08:58:00
4:58 AM,68.2,68.2,100,30.15,10.0,ESE,2.3,-,N/A,,Clear,110,2013-06-21 09:58:00
5:58 AM,67.3,67.3,100,30.16,10.0,ESE,6.9,-,N/A,,Clear,120,2013-06-21 10:58:00
6:58 AM,70.7,69.3,95,30.17,10.0,SE,3.5,-,N/A,,Clear,140,2013-06-21 11:58:00
7:58 AM,74.8,68.9,82,30.18,10.0,SSE,5.8,-,N/A,,Clear,160,2013-06-21 12:58:00
8:58 AM,79.0,67.5,68,30.19,10.0,SSW,9.2,-,N/A,,Clear,200,2013-06-21 13:58:00
9:58 AM,81.9,68.2,63,30.19,10.0,South,8.1,-,N/A,,Clear,180,2013-06-21 14:58:00
10:58 AM,83.8,70.2,63,30.20,10.0,SSW,6.9,-,N/A,,Clear,210,2013-06-21 15:58:00
11:58 AM,85.3,70.7,62,30.19,10.0,SSW,5.8,-,N/A,,Clear,210,2013-06-21 16:58:00
12:58 PM,86.7,70.7,59,30.18,10.0,South,9.2,-,N/A,,Partly Cloudy,180,2013-06-21 17:58:00
1:58 PM,86.4,70.5,59,30.16,10.0,Variable,5.8,-,N/A,,Scattered Clouds,0,2013-06-21 18:58:00
2:58 PM,88.0,70.2,55,30.15,10.0,South,9.2,-,N/A,,Clear,180,2013-06-21 19:58:00
3:58 PM,88.3,70.0,54,30.12,10.0,Variable,6.9,-,N/A,,Partly Cloudy,0,2013-06-21 20:58:00
4:24 PM,87.8,71.6,58,30.13,10.0,SSW,10.4,-,N/A,Thunderstorm,Thunderstorm,210,2013-06-21 21:24:00
4:44 PM,77.0,69.8,78,30.13,8.0,ENE,27.6,40.3,N/A,Rain-Thunderstorm,Light Thunderstorms and Rain,60,2013-06-21 21:44:00
4:47 PM,75.2,71.6,89,30.14,2.0,ENE,24.2,41.4,N/A,Rain-Thunderstorm,Light Thunderstorms and Rain,60,2013-06-21 21:47:00
4:48 PM,75.2,73.4,94,30.14,1.5,North,-9999.0,-,N/A,Rain-Thunderstorm,Thunderstorms and Rain,0,2013-06-21 21:48:00
4:49 PM,75.2,73.4,94,30.14,1.2,North,-9999.0,-,N/A,Rain-Thunderstorm,Thunderstorms and Rain,0,2013-06-21 21:49:00
4:51 PM,75.2,73.4,94,-9999,1.0,NE,23.0,-,N/A,Rain-Thunderstorm,Heavy Thunderstorms and Rain,50,2013-06-21 21:51:00
4:52 PM,75.2,73.4,94,30.15,0.8,NE,21.9,41.4,N/A,Rain-Thunderstorm,Heavy Thunderstorms and Rain,40,2013-06-21 21:52:00
4:53 PM,75.2,73.4,94,30.15,0.8,NE,21.9,41.4,N/A,Rain-Thunderstorm,Heavy Thunderstorms and Rain,40,2013-06-21 21:53:00
4:54 PM,75.2,73.4,94,30.14,0.8,NNE,21.9,41.4,N/A,Rain-Thunderstorm,Heavy Thunderstorms and Rain,30,2013-06-21 21:54:00
4:55 PM,75.2,73.4,94,30.14,0.5,NNE,20.7,41.4,N/A,Fog-Rain-Thunderstorm,Heavy Thunderstorms and Rain,30,2013-06-21 21:55:00
4:58 PM,75.4,72.7,91,30.14,0.5,NNE,18.4,-,0.26,Fog-Rain-Thunderstorm,Heavy Thunderstorms and Rain,30,2013-06-21 21:58:00
4:59 PM,71.6,71.6,100,30.15,0.5,NNE,19.6,-,N/A,Fog-Rain-Thunderstorm,Heavy Thunderstorms and Rain,20,2013-06-21 21:59:00
5:01 PM,71.6,71.6,100,30.15,0.5,North,20.7,-,N/A,Fog-Rain-Thunderstorm,Heavy Thunderstorms and Rain,10,2013-06-21 22:01:00
5:02 PM,71.6,71.6,100,30.15,0.8,North,18.4,-,N/A,Rain-Thunderstorm,Heavy Thunderstorms and Rain,10,2013-06-21 22:02:00
5:03 PM,71.6,71.6,100,30.15,0.8,North,16.1,-,N/A,Rain-Thunderstorm,Heavy Thunderstorms and Rain,360,2013-06-21 22:03:00
5:04 PM,71.6,71.6,100,30.15,1.0,North,15.0,-,N/A,Rain-Thunderstorm,Heavy Thunderstorms and Rain,360,2013-06-21 22:04:00
5:05 PM,71.6,71.6,100,30.15,1.2,North,12.7,-,N/A,Rain-Thunderstorm,Heavy Thunderstorms and Rain,360,2013-06-21 22:05:00
5:06 PM,71.6,71.6,100,30.15,1.5,North,11.5,-,N/A,Rain-Thunderstorm,Heavy Thunderstorms and Rain,360,2013-06-21 22:06:00
5:07 PM,71.6,71.6,100,30.15,2.0,North,12.7,-,N/A,Rain-Thunderstorm,Heavy Thunderstorms and Rain,360,2013-06-21 22:07:00
5:09 PM,71.6,71.6,100,30.14,4.0,North,13.8,-,N/A,Rain-Thunderstorm,Thunderstorms and Rain,350,2013-06-21 22:09:00
5:13 PM,71.6,71.6,100,30.13,9.0,NNW,12.7,-,N/A,Rain-Thunderstorm,Light Thunderstorms and Rain,340,2013-06-21 22:13:00
5:35 PM,75.2,75.2,100,30.13,7.0,NNW,1.2,-,N/A,Thunderstorm,Thunderstorm,340,2013-06-21 22:35:00
5:47 PM,75.2,75.2,100,30.13,10.0,NNW,3.5,-,N/A,Thunderstorm,Overcast,330,2013-06-21 22:47:00
5:58 PM,74.7,74.7,100,30.13,10.0,WNW,3.5,-,0.24,Thunderstorm,Mostly Cloudy,290,2013-06-21 22:58:00
6:58 PM,75.2,73.8,95,30.14,10.0,WSW,6.9,-,N/A,,Clear,250,2013-06-21 23:58:00
7:58 PM,74.7,72.9,94,30.13,10.0,Calm,Calm,-,0.01,,Clear,0,2013-06-22 00:58:00
8:23 PM,73.4,73.4,100,30.14,10.0,East,2.3,-,N/A,,Light Drizzle,100,2013-06-22 01:23:00
8:34 PM,73.4,73.4,100,30.14,10.0,ESE,5.8,-,N/A,,Clear,120,2013-06-22 01:34:00
8:58 PM,73.6,73.6,100,30.14,10.0,East,4.6,-,0.00,,Partly Cloudy,100,2013-06-22 01:58:00
9:58 PM,73.0,73.0,100,30.15,10.0,East,2.3,-,N/A,,Clear,80,2013-06-22 02:58:00
10:58 PM,72.9,72.9,100,30.13,10.0,SSE,4.6,-,N/A,,Clear,150,2013-06-22 03:58:00
11:58 PM,74.5,74.5,100,30.12,10.0,SSE,6.9,-,N/A,,Partly Cloudy,150,2013-06-22 04:58:00